Location: Unspecified
(42.2730°N, 83.7130°W)
Time: 23:10:47
(UTC+00:00)

Cosmos 2227 Rocket - Pass Details

Date: 14 December 2025
Orbit: 838 x 843 km, 71.0° (Epoch: 14 January)

Event Time Altitude Azimuth Distance (km) Brightness Sun altitude
Rises 12:19:42 0° 173° (S) 3,374 5.8 -6.8°
Reaches altitude 10° 12:22:23 10° 163° (SSE) 2,444 5.3 -6.3°
Maximum altitude 12:27:11 30° 103° (ESE) 1,464 4.5 -5.5°
Drops below altitude 10° 12:32:01 10° 44° (NE) 2,459 4.9 -4.7°
Sets 12:34:43 0° 34° (NE) 3,398 5.4 -4.3°
